Weather History for Lake Charles, LA

Change the Weather History Date:

Thursday, July 25, 2013

  Actual Average Record
Temperature  
Mean Temperature 86 °F -  
Max Temperature 93 °F 90 °F 100 °F (2005)
Min Temperature 78 °F 76 °F 68 °F (2000)
Cooling Degree Days 22    
Growing Degree Days 36 (Base 50)    
Moisture  
Dew Point 75 °F    
Average Humidity 76    
Maximum Humidity 90    
Minimum Humidity 52    
Precipitation  
Precipitation 0.00 in - - ()
Sea Level Pressure  
Sea Level Pressure 30.00 in    
Wind  
Wind Speed 5 mph (West)    
Max Wind Speed 9 mph    
Max Gust Speed -    
Visibility 7 miles    
Events Rain    
Averages and records for this station are not official NWS values.
T = Trace of Precipitation, MM = Missing Value Source: NWS Daily Summary

Daily Weather History Graph

Daily Weather History Graph

Search for Another Location

Airport:

Trip Planner

Search our weather history database for the weather conditions in past years. The results will help you decide how hot, cold, wet, or windy it might be!

Date:

Astronomy

Jul. 25, 2013 Rise Set
Actual Time 6:27 AM CDT 8:10 PM CDT
Civil Twilight 6:00 AM CDT 8:37 PM CDT
Nautical Twilight 5:28 AM CDT 9:08 PM CDT
Astronomical Twilight 4:55 AM CDT 9:42 PM CDT
Moon 10:13 PM CDT (7/25) 9:38 AM CDT (7/25)
Length of Visible Light 14h 36m
Length of Day
13h 43m
Waning Gibbous, 88% of the Moon is Illuminated
Jul 25
Waning Gibbous
Jul 29
Last Quarter
Aug 6
New
Aug 14
First Quarter
Aug 20
Full

Hourly Weather History & Observations

Time (CDT) Temp. Heat Index Dew Point Humidity Pressure Visibility Wind Dir Wind Speed Gust Speed Precip Events Conditions
12:15 AM 82.6 °F 89.9 °F 75.4 °F 79% 29.96 in 7.0 mi WNW 3.5 mph - N/A   Scattered Clouds
12:35 AM 83.1 °F 90.7 °F 75.2 °F 77% 29.96 in 7.0 mi West 5.8 mph - N/A   Mostly Cloudy
12:55 AM 83.3 °F 90.8 °F 75.2 °F 76% 29.96 in 7.0 mi West 5.8 mph - N/A   Mostly Cloudy
1:15 AM 82.8 °F 90.1 °F 75.4 °F 78% 29.96 in 7.0 mi WSW 6.9 mph - N/A   Scattered Clouds
1:35 AM 82.6 °F 89.9 °F 75.6 °F 79% 29.96 in 7.0 mi West 3.5 mph - N/A   Scattered Clouds
1:55 AM 82.4 °F 89.8 °F 75.6 °F 80% 29.96 in 7.0 mi WSW 5.8 mph - N/A   Mostly Cloudy
2:15 AM 82.2 °F 89.6 °F 75.7 °F 81% 29.96 in 7.0 mi Calm Calm - N/A   Mostly Cloudy
2:35 AM 81.9 °F 88.9 °F 75.9 °F 82% 29.96 in 7.0 mi Calm Calm - N/A   Mostly Cloudy
2:55 AM 81.7 °F 88.7 °F 75.9 °F 83% 29.97 in 7.0 mi Calm Calm - N/A   Mostly Cloudy
3:15 AM 81.5 °F 88.5 °F 76.1 °F 84% 29.97 in 7.0 mi NW 5.8 mph - N/A   Overcast
3:35 AM 81.5 °F 88.3 °F 75.9 °F 83% 29.97 in 7.0 mi WNW 4.6 mph - N/A   Mostly Cloudy
3:55 AM 81.5 °F 88.3 °F 75.7 °F 83% 29.97 in 7.0 mi West 4.6 mph - N/A   Overcast
4:15 AM 82.0 °F 88.9 °F 75.4 °F 80% 29.97 in 7.0 mi WSW 6.9 mph - N/A   Overcast
4:35 AM 81.7 °F 88.3 °F 75.2 °F 81% 29.97 in 7.0 mi West 8.1 mph - N/A   Mostly Cloudy
4:55 AM 81.7 °F 88.3 °F 75.2 °F 81% 29.98 in 7.0 mi WSW 6.9 mph - N/A   Overcast
5:15 AM 81.5 °F 87.8 °F 75.2 °F 81% 29.99 in 7.0 mi West 5.8 mph - N/A   Overcast
5:35 AM 81.5 °F 88.0 °F 75.4 °F 82% 29.99 in 7.0 mi West 6.9 mph - N/A   Overcast
5:55 AM 81.5 °F 88.3 °F 75.7 °F 83% 29.99 in 7.0 mi West 5.8 mph - N/A   Mostly Cloudy
6:00 AM 80.6 °F 86.2 °F 75.2 °F 84% 29.99 in 7.0 mi Variable 4.6 mph - N/A   Mostly Cloudy
6:15 AM 81.5 °F 88.3 °F 75.7 °F 83% 29.99 in 7.0 mi West 6.9 mph - N/A   Scattered Clouds
6:35 AM 81.7 °F 88.5 °F 75.6 °F 82% 30.00 in 7.0 mi WNW 8.1 mph - N/A Rain Rain
6:53 AM 80.6 °F 87.1 °F 77.0 °F 89% 30.00 in 4.0 mi Variable 4.6 mph - N/A   Mostly Cloudy
6:55 AM 80.1 °F 85.7 °F 76.6 °F 89% 30.00 in 5.0 mi WNW 5.8 mph - N/A   Light Drizzle
7:55 AM 80.6 °F 86.2 °F 75.2 °F 84% 30.02 in 6.0 mi WSW 5.8 mph - N/A   Mostly Cloudy
8:50 AM 80.6 °F 87.1 °F 77.0 °F 89% 30.04 in 6.0 mi WSW 5.8 mph - N/A Rain Light Rain
9:45 AM 82.4 °F 89.5 °F 75.2 °F 79% 30.04 in 7.0 mi West 9.2 mph - N/A   Scattered Clouds
10:45 AM 84.2 °F 90.9 °F 73.4 °F 70% 30.05 in 7.0 mi West 9.2 mph - N/A   Mostly Cloudy
11:58 AM 86.0 °F 93.4 °F 73.4 °F 66% 30.06 in 7.0 mi WNW 8.1 mph - N/A   Mostly Cloudy
12:50 PM 87.8 °F 97.6 °F 75.2 °F 66% 30.05 in 7.0 mi NNW 6.9 mph - N/A   Mostly Cloudy
1:45 PM 89.6 °F 98.2 °F 73.4 °F 59% 30.04 in 7.0 mi NNW 6.9 mph - N/A   Mostly Cloudy
2:51 PM 91.4 °F 100.1 °F 73.4 °F 55% 30.03 in 10.0 mi NNW 5.8 mph - N/A   Mostly Cloudy
3:50 PM 91.4 °F 100.1 °F 73.4 °F 55% 30.02 in 7.0 mi NNE 6.9 mph - N/A   Mostly Cloudy
4:55 PM 93.2 °F 102.4 °F 73.4 °F 52% 30.01 in 10.0 mi ENE 5.8 mph - N/A   Mostly Cloudy
5:57 PM 91.4 °F 98.4 °F 71.6 °F 52% 30.01 in 10.0 mi NE 4.6 mph - N/A   Scattered Clouds
6:50 PM 91.4 °F 100.1 °F 73.4 °F 55% 30.01 in 10.0 mi ESE 4.6 mph - N/A   Scattered Clouds
7:54 PM 84.2 °F 90.9 °F 73.4 °F 70% 30.01 in 10.0 mi SSE 9.2 mph - N/A   Scattered Clouds
8:50 PM 84.2 °F 92.3 °F 75.2 °F 74% 30.01 in 10.0 mi South 5.8 mph - N/A   Scattered Clouds
9:50 PM 82.4 °F 89.5 °F 75.2 °F 79% 30.03 in 7.0 mi SW 4.6 mph - N/A   Clear
11:15 PM 82.9 °F 90.2 °F 75.2 °F 77% 30.04 in 10.0 mi SSW 4.6 mph - N/A   Clear
11:35 PM 81.7 °F 87.8 °F 74.7 °F 79% 30.05 in 10.0 mi Calm Calm - N/A   Clear
11:55 PM 78.1 °F - 75.0 °F 90% 30.05 in 7.0 mi Calm Calm - N/A   Clear